[[{"header":{"parameterUnit":"m.s-1","parameterCategory":1,"la1":30.2991,"la2":30.254,"lo1":-89.0895,"lo2":-89.0444,"dy":0.0017,"dx":0.0017,"nx":28,"ny":28,"refTime":"2024-09-29T09:00:00:Z","depth":0,"parameterNumber":2,"parameterNumberName":"U-component_of_WINDS"},"data":[0,0,0,0,0,0,0,0,0,0,0,0,0,0,0,0,0,0,0,0,0,0,0,0,0,0,0,0,0,0,0,0,0,0,0,0,0,0,0,0,0,0,0,0,0,0,0,0,0,0,0,0,0,0,0,0,0,0,1.5054,1.5055,0,1.514,1.5141,1.5142,1.5104,1.5102,1.51,1.5098,1.519,1.5194,1.5198,0,0,0,0,0,0,0,0,0,0,0,0,0,1.4863,1.4867,1.5054,1.5055,1.5056,1.5139,1.5141,1.5142,1.5104,1.5102,1.5099,1.5097,1.5188,1.5193,1.5199,0,0,0,0,0,0,0,0,0,0,0,0,0,1.4947,1.4868,1.5054,1.5047,1.5048,1.5139,1.5141,1.5142,1.5105,1.5102,1.5098,1.5095,1.5187,1.5193,1.52,1.5304,0,0,1.522,1.5223,0,0,0,0,0,0,0,0,1.4943,1.4954,1.5047,1.5048,1.5048,1.5108,1.5107,1.5197,1.5106,1.5083,1.5098,1.5094,1.5165,1.5173,1.5197,1.5308,1.5312,1.522,1.5224,1.5227,1.5229,0,0,0,0,0,0,0,1.4937,1.4951,1.5088,1.5049,1.5049,1.5042,1.505,1.5124,1.5141,1.5085,1.5082,1.5093,1.5165,1.519,1.5199,1.5314,1.522,1.5226,1.523,1.5233,1.5517,1.5521,0,0,0,0,0,0,1.493,1.4946,1.5085,1.5091,1.4986,1.5048,1.5057,1.5092,1.514,1.5144,1.5095,1.5091,1.5181,1.5191,1.5202,1.5328,1.5227,1.5233,1.5237,1.5514,1.5518,1.5522,0,0,0,0,0,0,1.4926,1.4943,1.5082,1.5018,1.5035,1.5054,1.5094,1.5095,1.512,1.5148,1.5151,1.5118,1.5178,1.5192,1.5279,1.5331,1.5236,1.5242,1.551,1.5515,1.552,1.5581,0,0,0,0,0,0,1.4921,1.4942,1.4981,1.5019,1.5038,1.5156,1.5097,1.5099,1.5131,1.5126,1.517,1.5174,1.5177,1.5269,1.5286,1.5338,1.5248,1.5505,1.5512,1.5518,1.5575,1.5588,1.5599,0,0,0,0,0,1.4914,1.4995,1.4983,1.5,1.5087,1.5159,1.5171,1.5171,1.5136,1.5176,1.5194,1.5173,1.5322,1.5278,1.5296,1.5352,1.5502,1.551,1.5518,1.5569,1.5585,1.5599,0,0,0,0,0,0,1.4964,1.5,1.4987,1.5081,1.5117,1.5153,1.5203,1.5188,1.5236,1.5229,1.5229,1.5239,1.5329,1.5349,1.5299,1.5456,1.5407,1.5419,1.544,1.5455,1.5468,1.5461,1.5253,0,0,0,0,0,1.4985,1.504,1.5069,1.515,1.5169,1.5183,1.5214,1.5212,1.525,1.5265,1.5289,1.5328,1.5384,1.5421,1.5474,1.5577,1.5587,1.5625,1.5637,1.5647,1.5658,1.5716,1.5733,1.5548,1.5548,1.5548,0,0,1.5031,1.5057,1.5092,1.5161,1.5188,1.5246,1.5196,1.5259,1.5303,1.5275,1.5358,1.5378,1.5421,1.5517,1.5561,1.5537,1.5711,1.5657,1.5665,1.567,1.5726,1.5743,1.5759,1.5554,1.5553,1.5552,0,0,1.5144,1.5169,1.5239,1.5268,1.531,1.5319,1.5336,1.5374,1.5386,1.5469,1.545,1.5503,1.5598,1.563,1.5659,1.5786,1.577,1.5804,1.5868,1.5925,1.594,1.5952,1.5999,1.6015,1.5814,1.5814,1.5814,0,1.5196,1.528,1.5278,1.5343,1.5375,1.5351,1.5424,1.5452,1.551,1.5533,1.5505,1.5626,1.5654,1.5758,1.5789,1.5813,1.5834,1.5799,1.5937,1.595,1.5962,1.6007,1.6024,1.5818,1.5818,1.5817,1.5817,0,1.5343,1.5402,1.5455,1.551,1.5547,1.5616,1.5626,1.5664,1.5659,1.5672,1.5758,1.579,1.585,1.5874,1.587,1.5979,1.5962,1.5936,1.5887,1.5984,1.6025,1.6042,1.5824,1.5822,1.5821,1.582,0,0,1.5488,1.5541,1.5561,1.5586,1.5631,1.5678,1.5747,1.5804,1.5838,1.5879,1.5938,1.602,1.5996,1.6029,1.6029,1.6078,1.6178,1.6046,1.6047,1.607,1.6301,1.6321,1.6341,1.6167,1.6171,1.6173,1.6298,0,1.5605,1.5723,1.5723,1.5833,1.5889,1.5868,1.5928,1.5964,1.5978,1.6029,1.6046,1.6104,1.6068,1.6088,1.6136,1.6156,1.6225,1.6147,1.6224,1.6226,1.6213,1.6362,1.6383,1.6499,1.6314,1.6317,1.6319,0,1.5756,1.5801,1.5916,1.5954,1.5978,1.6031,1.6085,1.6133,1.6174,1.6181,1.6218,1.6211,1.6283,1.6231,1.6331,1.6278,1.631,1.6325,1.633,1.6337,1.6279,1.6374,1.6536,1.6554,1.6344,1.6342,1.634,0,1.5851,1.5941,1.6022,1.6044,1.609,1.6129,1.615,1.6188,1.6222,1.627,1.6293,1.6348,1.6379,1.6423,1.6432,1.6393,1.6533,1.6482,1.6542,1.6542,1.6573,1.6571,1.6743,1.6593,1.6593,1.6592,1.6592,0,1.5982,1.6053,1.6065,1.6115,1.6195,1.6196,1.6276,1.6294,1.6328,1.6383,1.6369,1.6421,1.6428,1.6483,1.649,1.6573,1.6587,1.6596,1.6597,1.6598,1.6597,1.6619,1.6611,1.6597,1.6596,1.6595,1.6594,0,1.6101,1.6112,1.6199,1.6236,1.6247,1.6304,1.6337,1.6386,1.6399,1.6468,1.6484,1.6506,1.6569,1.6582,1.6657,1.6662,1.6761,1.6754,1.6747,1.6747,1.6807,1.6802,1.6999,1.7026,1.6858,1.686,1.6861,0,1.6184,1.6238,1.6281,1.6316,1.6339,1.6395,1.643,1.6434,1.6472,1.6523,1.6566,1.6628,1.6677,1.678,1.6804,1.6862,1.6857,1.6922,1.6866,1.6865,1.6859,1.6856,1.6862,1.6933,1.6935,1.6936,1.6938,0,1.6329,1.6332,1.6383,1.6436,1.6478,1.652,1.6561,1.659,1.66,1.6644,1.6708,1.6746,1.6823,1.6885,1.6944,1.6968,1.6956,1.6955,1.6973,1.6974,1.6967,1.6973,1.6777,1.6951,1.6949,1.6948,1.6948,1.6947,1.6434,1.6481,1.6519,1.6576,1.6607,1.6645,1.6693,1.6712,1.6765,1.6826,1.6826,1.6897,1.6938,1.7015,1.7043,1.71,1.708,1.7104,1.7111,1.7117,1.7123,1.6958,1.7111,1.711,1.711,1.711,1.7109,0,1.6579,1.6602,1.6655,1.6711,1.6757,1.674,1.6784,1.6824,1.6885,1.6924,1.6973,1.7048,1.7109,1.7137,1.7198,1.7238,1.7234,1.7254,1.7251,1.7257,1.7137,1.7117,1.7256,1.7256,1.7256,1.7256,1.7256,1.7256,1.666,1.674,1.6748,1.6844,1.6867,1.6935,1.6962,1.6998,1.7029,1.7113,1.7162,1.718,1.7216,1.7279,1.7335,1.7342,1.7365,1.7388,1.7393,1.728,1.7265,1.7251,1.7232,1.7393,1.7393,1.7508,1.7509,1.751]},{"header":{"parameterUnit":"m.s-1","parameterCategory":1,"la1":30.2991,"la2":30.254,"lo1":-89.0895,"lo2":-89.0444,"dy":0.0017,"dx":0.0017,"nx":28,"ny":28,"refTime":"2024-09-29T09:00:00:Z","depth":0,"parameterNumber":3,"parameterNumberName":"V-component_of_WINDS"},"data":[0,0,0,0,0,0,0,0,0,0,0,0,0,0,0,0,0,0,0,0,0,0,0,0,0,0,0,0,0,0,0,0,0,0,0,0,0,0,0,0,0,0,0,0,0,0,0,0,0,0,0,0,0,0,0,0,0,0,-0.1074,-0.1075,0,-0.1095,-0.1095,-0.1096,-0.1142,-0.1143,-0.1144,-0.1145,-0.1164,-0.1164,-0.1163,0,0,0,0,0,0,0,0,0,0,0,0,0,-0.1072,-0.1072,-0.1074,-0.1075,-0.1075,-0.1095,-0.1095,-0.1096,-0.1142,-0.1143,-0.1144,-0.1146,-0.1164,-0.1164,-0.1163,0,0,0,0,0,0,0,0,0,0,0,0,0,-0.1081,-0.1072,-0.1074,-0.11,-0.1103,-0.1095,-0.1095,-0.1096,-0.1142,-0.1143,-0.1145,-0.1146,-0.1164,-0.1164,-0.1163,-0.1131,0,0,-0.1161,-0.1161,0,0,0,0,0,0,0,0,-0.108,-0.1081,-0.1096,-0.1099,-0.1102,-0.1118,-0.1102,-0.1107,-0.1141,-0.1127,-0.1145,-0.1147,-0.1147,-0.1148,-0.1149,-0.1132,-0.1133,-0.1161,-0.1161,-0.1161,-0.1161,0,0,0,0,0,0,0,-0.108,-0.108,-0.1083,-0.1097,-0.11,-0.111,-0.1113,-0.1103,-0.1129,-0.1128,-0.1132,-0.1134,-0.1149,-0.1149,-0.115,-0.1133,-0.1161,-0.1161,-0.1161,-0.116,-0.1088,-0.1087,0,0,0,0,0,0,-0.1076,-0.1079,-0.1082,-0.1083,-0.1094,-0.1109,-0.1112,-0.1111,-0.1129,-0.1133,-0.1133,-0.1136,-0.115,-0.115,-0.1151,-0.1113,-0.1161,-0.116,-0.116,-0.109,-0.1088,-0.1086,0,0,0,0,0,0,-0.1075,-0.1075,-0.1081,-0.1082,-0.1084,-0.1108,-0.1106,-0.1111,-0.1111,-0.1132,-0.1137,-0.1128,-0.1151,-0.1151,-0.1135,-0.1114,-0.116,-0.1159,-0.1092,-0.1089,-0.1087,-0.1037,0,0,0,0,0,0,-0.1075,-0.1075,-0.1064,-0.1082,-0.1084,-0.1066,-0.1105,-0.111,-0.111,-0.1115,-0.1129,-0.1133,-0.1152,-0.1136,-0.1135,-0.1114,-0.1159,-0.1094,-0.1091,-0.1088,-0.104,-0.1033,-0.1027,0,0,0,0,0,-0.1075,-0.1048,-0.1063,-0.1063,-0.107,-0.1065,-0.1066,-0.1088,-0.1108,-0.1096,-0.111,-0.1133,-0.1117,-0.1134,-0.1133,-0.1112,-0.1095,-0.1092,-0.1088,-0.1043,-0.1034,-0.1027,0,0,0,0,0,0,-0.1026,-0.1051,-0.1067,-0.1046,-0.1053,-0.1073,-0.1058,-0.1078,-0.1079,-0.1083,-0.1111,-0.1114,-0.1093,-0.1101,-0.112,-0.108,-0.111,-0.1106,-0.1076,-0.1067,-0.1061,-0.1059,-0.1159,0,0,0,0,0,-0.1013,-0.1008,-0.103,-0.1009,-0.1011,-0.1034,-0.1033,-0.105,-0.1058,-0.106,-0.1073,-0.1079,-0.1075,-0.1072,-0.107,-0.1042,-0.1045,-0.1027,-0.102,-0.1014,-0.101,-0.0995,-0.0986,-0.1075,-0.1075,-0.1075,0,0,-0.0986,-0.0999,-0.0994,-0.0999,-0.1007,-0.0999,-0.1036,-0.1027,-0.1021,-0.1059,-0.1044,-0.1053,-0.1062,-0.1039,-0.103,-0.1045,-0.0987,-0.101,-0.1005,-0.1004,-0.099,-0.0982,-0.0974,-0.1072,-0.1073,-0.1073,0,0,-0.0932,-0.0942,-0.0925,-0.0932,-0.0943,-0.0958,-0.0954,-0.097,-0.0978,-0.0964,-0.0991,-0.0985,-0.0978,-0.0983,-0.0984,-0.0931,-0.0952,-0.093,-0.0893,-0.0878,-0.0871,-0.0865,-0.0844,-0.0837,-0.0926,-0.0926,-0.0926,0,-0.0897,-0.0888,-0.0914,-0.0903,-0.0904,-0.0938,-0.092,-0.0925,-0.0934,-0.0933,-0.0951,-0.0942,-0.0951,-0.0929,-0.0916,-0.0917,-0.0911,-0.0928,-0.087,-0.0864,-0.0859,-0.0839,-0.0832,-0.0923,-0.0923,-0.0924,-0.0924,0,-0.0843,-0.0836,-0.0821,-0.0829,-0.0828,-0.0814,-0.0837,-0.0833,-0.085,-0.0863,-0.0847,-0.0859,-0.0859,-0.0855,-0.0871,-0.0835,-0.0844,-0.0865,-0.0895,-0.0847,-0.0829,-0.0822,-0.0919,-0.092,-0.0921,-0.0921,0,0,-0.0758,-0.0781,-0.0775,-0.0779,-0.0793,-0.0788,-0.0774,-0.0775,-0.077,-0.0776,-0.0764,-0.0757,-0.0777,-0.0778,-0.0795,-0.0782,-0.0737,-0.0805,-0.0805,-0.079,-0.0696,-0.0679,-0.067,-0.0752,-0.075,-0.0749,-0.0695,0,-0.0707,-0.0686,-0.0709,-0.0683,-0.0676,-0.0708,-0.0696,-0.0703,-0.0715,-0.071,-0.0723,-0.0717,-0.0744,-0.0745,-0.0733,-0.0745,-0.0718,-0.075,-0.0739,-0.0739,-0.0735,-0.0661,-0.0643,-0.0591,-0.0688,-0.0687,-0.0686,0,-0.0644,-0.0646,-0.0619,-0.0634,-0.0632,-0.0621,-0.0623,-0.0619,-0.0626,-0.0636,-0.0637,-0.0658,-0.0645,-0.0675,-0.0656,-0.0676,-0.0673,-0.0679,-0.0677,-0.0676,-0.0708,-0.0656,-0.0575,-0.0567,-0.0676,-0.0677,-0.0678,0,-0.0583,-0.058,-0.0563,-0.0565,-0.0583,-0.0574,-0.0581,-0.059,-0.0589,-0.059,-0.0589,-0.0589,-0.0588,-0.0587,-0.0606,-0.0626,-0.0584,-0.0616,-0.059,-0.0589,-0.0579,-0.0579,-0.0494,-0.0579,-0.0579,-0.058,-0.058,0,-0.0522,-0.0504,-0.0536,-0.0525,-0.0505,-0.0532,-0.0511,-0.0521,-0.0529,-0.052,-0.0548,-0.0539,-0.0566,-0.0559,-0.0575,-0.0556,-0.0556,-0.0562,-0.0565,-0.0558,-0.0557,-0.0555,-0.0559,-0.0578,-0.0578,-0.0578,-0.0579,0,-0.0451,-0.0471,-0.0455,-0.0473,-0.0477,-0.0461,-0.0476,-0.0466,-0.048,-0.0468,-0.0467,-0.0488,-0.0481,-0.0501,-0.0498,-0.0508,-0.048,-0.049,-0.0477,-0.048,-0.0452,-0.0453,-0.0362,-0.0351,-0.0445,-0.0444,-0.0443,0,-0.041,-0.0397,-0.0413,-0.0409,-0.0415,-0.0409,-0.0407,-0.0432,-0.0429,-0.0437,-0.0426,-0.0422,-0.042,-0.0407,-0.0422,-0.0419,-0.0428,-0.0397,-0.0428,-0.0421,-0.0426,-0.0426,-0.0424,-0.039,-0.0389,-0.0388,-0.0387,0,-0.0334,-0.0345,-0.0343,-0.0343,-0.0341,-0.0342,-0.0346,-0.0341,-0.0368,-0.0363,-0.0357,-0.0355,-0.0351,-0.0346,-0.0346,-0.0352,-0.0373,-0.0377,-0.0371,-0.0362,-0.0354,-0.0356,-0.0457,-0.0379,-0.038,-0.038,-0.0381,-0.0381,-0.0276,-0.0265,-0.0275,-0.027,-0.0276,-0.0278,-0.0269,-0.0282,-0.0278,-0.0277,-0.0292,-0.0282,-0.0289,-0.0292,-0.0295,-0.0287,-0.0302,-0.0293,-0.029,-0.0287,-0.0282,-0.0357,-0.0288,-0.0288,-0.0288,-0.0288,-0.0289,0,-0.02,-0.0208,-0.0204,-0.0208,-0.0204,-0.0226,-0.023,-0.0225,-0.0217,-0.0222,-0.0219,-0.0211,-0.0206,-0.022,-0.0217,-0.0208,-0.0217,-0.0206,-0.0206,-0.0206,-0.027,-0.0275,-0.0198,-0.0198,-0.0198,-0.0198,-0.0198,-0.0198,-0.016,-0.0143,-0.0155,-0.0139,-0.0147,-0.0138,-0.0139,-0.0141,-0.0145,-0.0135,-0.0131,-0.0141,-0.0149,-0.0146,-0.0142,-0.0146,-0.0143,-0.0128,-0.0135,-0.0193,-0.0202,-0.021,-0.0215,-0.0127,-0.0127,-0.0072,-0.0071,-0.0071]}]]